Location: Newark
(38.6500°N, 6.7333°W)
Time: 23:52:00
(UTC+00:00)

ISS - Visible Passes

Search period start: 20 October 2019 00:00
Search period end: 30 October 2019 00:00
Orbit: 411 x 421 km, 51.6° (Epoch: 21 October)

Date Brightness Start Highest point End Pass type
(mag) Time Alt. Az. Time Alt. Az. Time Alt. Az.
23 Oct -0.9 05:33:38 10° S 05:36:00 18° SE 05:38:23 10° E visible
25 Oct -3.1 05:32:29 13° SW 05:35:19 55° SE 05:38:37 10° ENE visible
26 Oct -2.0 04:46:44 29° SE 04:46:48 29° SE 04:49:46 10° ENE visible
27 Oct -3.5 05:33:42 33° W 05:34:47 49° NW 05:38:04 10° NE visible
28 Oct -2.1 04:47:32 32° NE 04:47:32 32° NE 04:49:31 10° NE visible
28 Oct -1.8 06:21:02 10° WNW 06:23:16 16° NNW 06:25:31 10° NNE visible
29 Oct -2.3 05:34:09 22° NW 05:34:26 22° NNW 05:37:10 10° NNE visible
